Regional Weather Roundup
Issued by NWS

Home | Current Version | Previous Version | Text Only | Print | Product List | Glossary On
Versions: 1 2 3 4 5 6 7 8 9 10 11 12 13 14 15 16 17 18 19 20 21 22 23 24 25 26 27 28 29 30 31 32 33 34 35 36 37 38 39 40 41 42 43 44 45 46 47 48 49 50
000
ASHW40 PHFO 300330
RWRHI

WEATHER ROUNDUP FOR HAWAII
NATIONAL WEATHER SERVICE HONOLULU HI
500 PM HST SAT AUG 29 2015

THIS IS AN AUTOMATED REPORT THAT HAS NOT BEEN QUALITY CONTROLLED.

NOTE..."FAIR" INDICATES FEW OR NO CLOUDS BELOW 12,000 FEET WITH NO
SIGNIFICANT WEATHER AND/OR OBSTRUCTIONS TO VISIBILITY.

* - THESE SITES REPORT LIMITED FIELDS

HIZ001>004-300400-
KAUAI-NIIHAU-

CITY           SKY/WX    TMP DP  RH WIND       PRES   REMARKS
LIHUE APT      MOSUNNY   83  76  79 NE12      29.88F HX  91
PORT ALLEN*    NOT AVBL
POIPU*           N/A     84 N/A N/A NE8G17      N/A
PRINCEVILLE*     N/A     84 N/A N/A MISG        N/A
KOKOLE POINT*  NOT AVBL
MOLOAA DAIRY*    N/A     84  75  74 E7G13       N/A  HX  92
WAIMEA HTS*    NOT AVBL
PUU OPAE*      NOT AVBL
PUU LUA*       NOT AVBL
MAKAHA RIDGE*    N/A     75  73  94 S1          N/A
$$

HIZ005>011-300400-
OAHU-

CITY           SKY/WX    TMP DP  RH WIND       PRES   REMARKS
HONOLULU       MOSUNNY   87  72  60 NE18      29.85R HX  93
KALAELOA       MOSUNNY   88  70  55 VRB7      29.85F HX  93
KANEOHE MCB    MOSUNNY   84  73  69 NE10      29.84S HX  90
WHEELER FIELD  FAIR      84  72  67 NE9       29.87R
BELLOWS*         N/A    N/A N/A N/A NE13        N/A
KAHUKU*          N/A    N/A N/A N/A NE8G15      N/A
WHEELER*       NOT AVBL
WAIANAE HARBOR NOT AVBL
DILLINGHAM*      N/A     88  70  55 MISG        N/A  HX  92
KAHUKU TRN*      N/A     81  72  74 E12G18      N/A
KAWAILOA*        N/A     81  70  69 E8G18       N/A
KII*             N/A     84  77  79 E14         N/A  HX  94
MAKUA RANGE*     N/A     84  73  70 SW3G12      N/A  HX  91
OAHU FOREST NW NOT AVBL
SCHOFIELD BRK*   N/A     81  70  69 MISG        N/A
SCHOFIELD S*   NOT AVBL
WAIANAE VLY*   NOT AVBL
KUAOKALA*      NOT AVBL
HONOULIUULI*   NOT AVBL
MOKUOLOE IS*   NOT AVBL
PALEHUA*       NOT AVBL
WAIAWA PHB*    NOT AVBL
$$

HIZ012>013-300400-
MOLOKAI-

CITY           SKY/WX    TMP DP  RH WIND       PRES   REMARKS
MOLOKAI AIRPT  MOSUNNY   83  71  67 NE15G21   29.86S
KALAUPAPA      NOT AVBL
MAKAPULAPAI*   NOT AVBL
MOLOKAI 1*     NOT AVBL
PUU ALII*        N/A     72  64  77 E2G10       N/A
$$

HIZ016-300400-
KAHOOLAWE-

CITY           SKY/WX    TMP DP  RH WIND       PRES   REMARKS
KAHOOLAWE*     NOT AVBL
HAKIOAWA*        N/A     80  72  75 MISG      30.28F
HONOKANAIA*      N/A     86  71  60 NE16G28   29.78F HX  91
KANELOA*         N/A     81  72  74 E17G29    29.92F
KEALIALALO*      N/A     82  72  69 E12G29    29.85S
LUA MAKIKA*    NOT AVBL
$$

HIZ014>015-300400-
LANAI-

CITY           SKY/WX    TMP DP  RH WIND       PRES   REMARKS
LANAI CITY     FAIR      80  71  74 NE15      29.90S
LANAI 1*       NOT AVBL
$$

HIZ017>028-300400-
MAUI-

CITY           SKY/WX    TMP DP  RH WIND       PRES   REMARKS
KAHULUI        MOSUNNY   85  72  65 NE20G25   29.84S HX  91
KAPALUA-W MAUI MOSUNNY   84  68  58 NE14      29.86
HANA AIRPORT   MOSUNNY   82  72  69 SE1       29.89S
HANA*            N/A     84 N/A N/A NE7         N/A
HALEAKALA SUMM   N/A     59  45  58 NW7         N/A
MAALAEA BAY*   NOT AVBL
HALEAKALA*     NOT AVBL
KAUPO GAP*     NOT AVBL
KULA 1*          N/A     65  62  89 NW3         N/A
$$

HIZ023>026-300400-
BIG ISLAND OF HAWAII COAST AND LOWER SLOPES-

CITY           SKY/WX    TMP DP  RH WIND       PRES   REMARKS
KAILUA KONA    PTSUNNY   86  75  69 SW8       29.81S HX  95
HILO           MOSUNNY   86  74  67 N9        29.85S HX  94
HONOKAA*       NOT AVBL
KAWAIHAE MWT*    N/A     88 N/A N/A SW7         N/A
KAWAIHAE*        N/A     84 N/A N/A W6          N/A
SOUTH POINT*     N/A     81 N/A N/A E13G20      N/A
UPOLU AIRPORT*   N/A    N/A N/A N/A E14G21      N/A
KAMUELA*       NOT AVBL
HAKALAU*         N/A     68  59  73 E3G10       N/A
KALOKO-HONOKO*   N/A     86  73  66 SW5G10    29.81S HX  93
PALI 2*          N/A     81  64  57 N8G17       N/A
KEALAKOMO*       N/A     57  34  41 N20G30      N/A
KAUPULEHU*     NOT AVBL
KAPAPALA*        N/A     80  73  79 S6G12       N/A
LOWER KAHUKU*    N/A     75 N/A N/A E2G8        N/A
PUHE CS*         N/A     88  75  66 SW3         N/A  HX  97
PUHO CS*         N/A     86  74  66 W3          N/A  HX  94
PTA KEAMUKU*     N/A     72  63  73 CALM        N/A
WAIKOLOA*      NOT AVBL
$$

HIZ027>028-300400-
BIG ISLAND OF HAWAII INTERIOR AND SUMMMITS-

CITY           SKY/WX    TMP DP  RH WIND       PRES   REMARKS
BRADSHAW FIELD MOSUNNY   69  60  73 W6        30.22S
MK VISITOR CEN   N/A     55  50  82 S3          N/A
MAUNA KEA*       N/A     46  32  57 N15         N/A
MAUNA LOA*       N/A     52  41  66 MISG        N/A
MAUNA LOA 1*   NOT AVBL
PTA KIPUKA*      N/A     72  61  68 N7G14       N/A
PTA RANGE 17*    N/A     66  59  77 W8G16       N/A
PTA WEST*        N/A     70  63  78 VRB6G14     N/A
NENE CABIN*      N/A     63  54  72 E6G12       N/A
AHUMOA*        NOT AVBL
PTA PORTABLE*  NOT AVBL
PUU MALI*        N/A    N/A N/A N/A NE12G18     N/A
$$

HIC003-300400-
NORTHWEST ISLANDS-

CITY           SKY/WX    TMP DP  RH WIND       PRES   REMARKS
MIDWAY ISLAND  SUNNY     84  75  74 SE6       29.88S HX  92
MIDWAY NOS*    NOT AVBL
FRENCH FRIGATE NOT AVBL
$$

PHZ110>124-180-300400-
BUOY REPORTS

STATION/POSITION TIME  TEMP    WIND        PRES    WAVE   SWELL
                       AIR SEA DIR/SP/G            HT/PER HT/DIR
                 (UTC) (F)     (DEG/KT/KT) (MB)    (FT/S) (FT/D)
BUOY 51001       0256   82 83   90/ 14/ 17 1012.0
BUOY 51101       0300   83 83  100/ 14/ 17 1011.3F   8/14   8/260
BUOY 51100       NOT AVBL
BUOY 51002       0300   83 84   80/ 12/ 14 1008.9F   5/16   5/340
BUOY 51003       0300   83 86   90/  8/ 10 1010.0F   6/14   5/260
BUOY 51004       0238   83 83   30/ 14/ 16 1007.9S   7/11   7/ 90
BARBERS PT BUOY  NOT AVBL
WAIMEA BAY BUOY  0300      82                N/A     6/ 9   3/300
KAILUA BAY BUOY  0300      84                N/A     6/ 9   2/350
LANAI BUOY       NOT AVBL
BARBERS PT 2     0300      84                N/A     4/14   3/230
PAUWELA MAUI     0300      82                N/A     5/14   3/320
HILO             NOT AVBL
KANEOHE BAY BUOY 0300      82                N/A     6/ 9   2/360
HANALEI KAUAI    0300      83                N/A     7/ 9   3/310
KAHULUI HARBOR   NOT AVBL
HONOLULU HARBOR  NOT AVBL
KILO NALU        NOT AVBL
HILO HARBOR      NOT AVBL
MOKUOLOE         NOT AVBL
NAWILIWILI       NOT AVBL
WHOTS BUOY       NOT AVBL
BUOY 51028       NOT AVBL
$$

......................KEY........................................
  SKY/WX - SKY CONDITIONS/PRESENT WEATHER
  TMP    - TEMPERATURE IN FAHRENHEIT
  DWPT   - DEWPOINT IN FAHRENHEIT
  RH     - RELATIVE HUMIDITY IN PERCENT
  WIND   - DIRECTION AND SPEED /MPH FOR ISLANDS...KTS FOR BUOYS/
  PRES   - MEAN SEA LEVEL PRESSURE IN INCHES OF HG
  VSB    - VISIBILITY IN MILES
  HX     - HEAT INDEX
  WCI    - WIND CHILL INDEX
  VRB    - VARIABLE WIND DIRECTION
  N/A    - NOT AVAILABLE


USA.gov is the U.S. government's official web portal to all federal, state and local government web resources and services.